www.pogodaiklimat.ru

Погода и климат >> Архив погоды >> Туркменистан >> Серхетабад


АРХИВ ПОГОДЫ в Серхетабаде

Время (UTC), дата Ветер
(напр.,м/с)
 
Видим.   Явления Облачность Т
(С)
Тd
(С)
f
(%)
Тe
(С)
Тes
(С)
Комфортность P
(гПа)
Po
(гПа)
Тmin
(С)
Tmax
(С)
R
(мм)
R24
(мм)
S
(см)
03 15.08 З 1 4000 м ясно +15.9 +4.1 45 +17 +20 очень
холодно
1016.1 944.2 +14.0
06 15.08 В 5 4000 м ясно +26.5 +1.5 20 +25 +33 комфорт 1013.4 944.1 +14.0
09 15.08 СВ 5 4000 м ясно +29.5 +1.9 17 +27 +36 жарко 1010.5 942.9
12 15.08 СВ 5 4000 м ясно +30.3 +1.5 16 +28 +31 жарко 1008.6 940.4
15 15.08 СВ 3 4000 м ясно +26.8 -0.2 17 +25 +25 комфорт 1009.8 940.7 +30.6
18 15.08 С 2 4000 м ясно +21.4 -3.0 19 +21 +21 комфорт 1012.5 942.0 +30.6
21 15.08 штиль 0
{6}
4000 м ясно +15.4 +2.5 42 +15 +15 очень
холодно
1014.1 942.1
00 16.08 ЮЗ 1 4000 м ясно +13.2 -0.5 39 +14 +14 холодно 1014.6 942.1
03 16.08 ЮЗ 2 4000 м ясно +13.8 -0.7 37 +14 +17 очень
холодно
1014.9 942.5 +12.4
06 16.08 В 1 4000 м ясно +25.2 -0.9 18 +23 +42 комфорт 1012.3 942.7 +12.4
09 16.08 В 5 4000 м ясно +29.1 -4.1 11 +26 +35 жарко 1010.2 941.5
12 16.08 СВ 6 4000 м ясно +30.2 -3.3 11 +27 +29 жарко 1008.5 940.3
15 16.08 С 3 4000 м ясно +27.6 -3.3 13 +25 +25 комфорт 1008.5 939.6 +30.5
18 16.08 штиль 0 4000 м ясно +20.3 +1.9 29 +20 +20 очень
холодно
1011.1 940.5 +30.5
21 16.08 СЗ 1
{7}
4000 м ясно +18.4 +2.3 34 +20 +20 прохладно 1011.0 940.1 80
00 17.08 штиль 0 4000 м ясно +14.9 +4.6 50 +15 +15 прохладно 1011.6 939.8
03 17.08 ЮЗ 1 4000 м ясно +15.3 +2.9 43 +16 +19 очень
холодно
1012.7 940.9 +13.5
06 17.08 СВ 2 4000 м ясно +25.8 +4.0 24 +25 +40 комфорт 1009.9 940.7 +13.5
09 17.08 СВ 4
{6}
4000 м ясно +30.2 +3.2 18 +28 +40 жарко 1007.1 939.0
12 17.08 СВ 4 4000 м ясно +31.2 -0.5 13 +28 +32 жарко 1005.4 937.6
15 17.08 С 2 4000 м ясно +28.2 +0.6 17 +26 +26 жарко 1006.5 938.0 +31.5
18 17.08 С 2 4000 м ясно +23.6 +1.9 24 +23 +23 комфорт 1008.8 939.2 +31.5
21 17.08 штиль 0
{12}
4000 м {метель} ясно +17.8 +5.0 43 +18 +18 холодно 1010.9 939.8
00 18.08 З 1 4000 м ясно +15.2 +2.1 41 +16 +16 прохладно 1012.5 940.6
03 18.08 ЮЗ 2 4000 м ясно +15.5 +1.7 39 +16 +18 очень
холодно
1013.4 941.6 +14.4
06 18.08 СВ 3 4000 м ясно +28.0 +4.3 22 +27 +39 жарко 1010.9 942.1 +14.4
09 18.08 СВ 4 4000 м ясно +30.4 +4.6 20 +29 +40 жарко 1009.3 941.2
12 18.08 СВ 5 4000 м ясно +32.3 -1.7 11 +29 +32 жарко 1007.9 940.2
15 18.08 СВ 3 4000 м ясно +29.4 -2.7 12 +26 +26 жарко 1008.8 940.4 +32.4
18 18.08 В 1 4000 м ясно +23.6 +0.2 21 +22 +22 комфорт 1011.8 941.9 +32.4
21 18.08 штиль 0 4000 м ясно +17.4 +2.5 37 +17 +17 холодно 1013.4 941.9
00 19.08 ЮЗ 1 4000 м ясно +15.2 +1.5 39 +16 +16 прохладно 1014.1 942.1
03 19.08 ЮЗ 2 4000 м ясно +15.6 +0.2 35 +16 +19 очень
холодно
1014.8 942.9 +14.0
06 19.08 В 3 4000 м ясно +27.4 +2.3 20 +26 +38 жарко 1012.2 943.2 +14.0
09 19.08 С 6 4000 м ясно +31.0 +0.2 14 +28 +35 жарко 1010.3 942.2
12 19.08 СВ 6 4000 м ясно +32.5 -2.2 11 +29 +31 жарко 1008.9 941.1
15 19.08 СВ 3 4000 м ясно +30.0 +1.5 16 +27 +27 жарко 1010.2 941.9 +32.7
18 19.08 СВ 2 4000 м ясно +24.8 +4.1 26 +24 +24 комфорт 1012.5 942.9 +32.7
21 19.08 штиль 0
{7}
4000 м ясно +19.3 +6.2 42 +20 +20 прохладно 1013.4 942.5
00 20.08 ЮВ 1 4000 м ясно +17.4 +4.6 43 +18 +18 по сезону 1013.4 942.1
03 20.08 З 2 4000 м ясно +17.8 +3.0 37 +18 +21 холодно 1014.4 943.1 +16.4
06 20.08 СВ 3 4000 м ясно +28.7 +3.6 20 +27 +39 жарко 1012.3 943.5 +16.4
09 20.08 С 4
{7}
4000 м ясно +33.1 0.0 12 +30 +41 жарко 1009.5 941.9
12 20.08 СВ 6 4000 м ясно +33.9 -1.4 10 +30 +32 жарко 1008.1 940.7
15 20.08 С 3 4000 м ясно +30.6 -1.7 12 +27 +27 жарко 1010.0 941.7 +34.1
18 20.08 СВ 2 4000 м ясно +25.8 +4.3 25 +25 +25 комфорт 1011.6 942.3 +34.1
21 20.08 штиль 0 4000 м ясно +20.0 +6.2 41 +21 +21 комфорт 1012.8 942.1
00 21.08 ЮЗ 1 4000 м ясно +16.4 +4.5 45 +17 +17 по сезону 1013.7 942.1
03 21.08 З 2 4000 м ясно +17.8 +2.5 36 +18 +21 холодно 1013.6 942.3 +16.0
06 21.08 ЮВ 1 4000 м ясно +29.1 +5.8 23 +28 +45 жарко 1010.8 942.4 +16.0
09 21.08 СВ 5 4000 м ясно +32.5 +2.7 15 +30 +39 жарко 1008.9 941.2
12 21.08 СВ 5 4000 м ясно +33.8 +0.6 12 +30 +33 жарко 1007.3 939.9
15 21.08 С 3 4000 м ясно +30.6 +2.9 17 +28 +28 жарко 1007.4 939.4 +33.9
18 21.08 СВ 2 4000 м ясно +28.2 +4.6 22 +27 +27 жарко 1008.3 939.8 +33.9
21 21.08 штиль 0
{11}
4000 м ясно +20.8 +7.7 43 +22 +22 комфорт 1009.6 939.4
00 22.08 ЮЗ 1 4000 м ясно +18.0 +6.2 46 +19 +19 тепло 1010.4 939.4

 

Местоположение метеостанции Серхетабад (Марыйский велаят, Туркменистан): широта 35.28 долгота 62.35 высота над уровнем моря 625 м.

В архиве по умолчанию представлена погода в Серхетабаде за последнюю неделю. Архивные данные за месяц целиком и за предыдущие месяцы, начиная с января 2011 года, Вы можете получить, выбрав интересующий диапазон дат из раскрывающегося списка и нажав кнопку "Ввод!".


*Определитесь, кто Вы:
робот инопланетянин человек

Внимание! Время в таблицах - всемирное. Для получения местного времени необходимо прибавить поправку, которая равна 5 ч.

Смотрите также архив погоды в соседних городах и на ближайших метеорологических станциях:

Погода в Тагтабазаре (Марыйский велаят, Туркменистан) (91 км)
Погода в Герате (Афганистан) (120 км)
Погода в Сарагте (Ахалский велаят, Туркменистан) (172 км)
Погода в Серахсе (Иран) (175 км)
Погода в Елетене (Марыйский велаят, Туркменистан) (225 км)
Погода в Байрамалы (Ахалский велаят, Туркменистан) (258 км)
Погода в Мешхеде (Иран) (269 км)
Погода в Торбете-Хейдерие (Иран) (284 км)
Погода в Теджене (Ахалский велаят, Туркменистан) (285 км)
Погода в Багтыярлыке (Марыйский велаят, Туркменистан) (314 км)

Пояснения к столбцам:

Ветер - указаны скорость ветра в м/с - средняя за 10 мин, порывы в срок и между сроками (в фигурных скобках) и направление, откуда дует ветер: С - северный, СВ - северо-восточный, В - восточный, ЮВ - юго-восточный, Ю - южный, ЮЗ - юго-западный, З - западный, СЗ - северо-западный.
Видимость - горизонтальная дальность видимости в метрах или километрах. При видимости от 1 до 10 км при отсутствии осадков обычно наблюдается дымка, при ухудшении видимости до 1 км и менее - туман. В сухую погоду видимость может ухудшаться дымом, пылью или мглою.
Явления - указаны атмосферные явления, наблюдавшиеся в срок или в последний час перед сроком; фигурными скобками обозначены явления, наблюдавшиеся между сроками (за 1-3 часа до срока); квадратными скобками обозначены град или гололедные отложения с указанием их диаметра в мм.
Облачность - указаны через наклонную черту общая и нижняя облачность в баллах и высота нижней границы облаков в метрах; квадратными скобками обозначены формы облаков: Ci - перистые, Cs - перисто-слоистые, Cc - перисто-кучевые, Ac - высококучевые, As - высокослоистые, Sc - слоисто-кучевые, Ns - слоисто-дождевые, Cu - кучевые, Cb - кучево-дождевые. Подробнее классификацию облаков см. в Атласе облаков (PDF).
T - Температура воздуха - температура, измеренная на высоте 2 м над землей.
Td - Температура точки росы - температура, при понижении до которой содержащийся в воздухе водяной пар достигнет насыщения.
f - Относительная влажность воздуха - влажноcть воздуха, измеренная на высоте 2 м над землей.
Te - Эффективная температура - температура, которую ощущает одетый по сезону человек в тени. Характеристика душности погоды. При расчете учитывается влияние влажности воздуха и скорости ветра на теплоощущения человека.
Tes - Эффективная температура на солнце - температура, которую ощущает человек, с поправкой на солнечный нагрев. Характеристика знойности погоды. Зависит от высоты солнца над горизонтом, облачности и скорости ветра. Ночью, в пасмурную погоду, а также при ветре 12 м/с и более поправка равна нулю.
P - Атмосферное давление - приведенное к уровню моря атмосферное давление.
Po - Атмосферное давление - измеренное на уровне метеостанции атмосферное давление.
Tmin - Минимальная температура - минимум температуры воздуха на высоте 2 м над землей.
Tmax - Максимальная температура - максимум температуры воздуха на высоте 2 м над землей.
R - Количество осадков - Количество выпавших осадков за период времени, мм. При наведении курсора мыши на число - период времени, за который выпало указанное количество осадков.
R24 - Количество осадков - Количество выпавших осадков за 24 часа, мм.
S - Снежный покров - Высота снежного покрова, см. При наведении курсора мыши на число - состояние снежного покрова и степень покрытия местности в баллах.